Location: Newark
(43.6583°N, 1.6617°E)
Time: 05:39:23
(UTC+00:00)

Tiros 1 - Pass Details

Date: 01 September 2019
Orbit: 631 x 664 km, 48.4° (Epoch: 14 September)

Event Time Altitude Azimuth Distance (km) Brightness Sun altitude
Rises 21:12:35 0° 256° (WSW) 2,916 10.9 -26.7°
Reaches altitude 10° 21:14:55 10° 260° (W) 2,007 10.1 -27.0°
Enters shadow 21:18:49 56° 297° (WNW) 750 7.6 -27.5°
Maximum altitude 21:19:30 65° 342° (NNW) 696 - -27.6°
Drops below altitude 10° 21:24:06 10° 65° (ENE) 2,012 - -28.2°
Sets 21:26:27 0° 68° (ENE) 2,923 - -28.4°
